CW3453 Weather Reports


time (UTC)temp
C
wind
direction
speed
KPH
gust
KPH
rain 1hr
cm
rain 24hr
cm
rain mn
cm
humidity
%
barometer
mb
20260503213012 32 257 1.6 8.0 0.00 0.00 0.00 24 1009.3
20260503212504 32 15 0.0 9.7 0.00 0.00 0.00 23 1009.3
20260503212004 32 135 1.6 11.3 0.00 0.00 0.00 25 1009.4
20260503211514 32 105 3.2 11.3 0.00 0.00 0.00 27 1009.4
20260503211003 31 217 0.0 6.4 0.00 0.00 0.00 26 1009.4
20260503210507 31 38 3.2 6.4 0.00 0.00 0.00 27 1009.5
20260503210017 31 342 1.6 6.4 0.00 0.00 0.00 27 1009.7
20260503205503 31 319 3.2 6.4 0.00 0.00 0.00 30 1009.7
20260503204519 31 51 3.2 8.0 0.00 0.00 0.00 29 1009.7
20260503204008 31 19 0.0 6.4 0.00 0.00 0.00 27 1009.8
20260503203504 30 28 1.6 6.4 0.00 0.00 0.00 28 1009.8
20260503203018 31 317 1.6 6.4 0.00 0.00 0.00 30 1010.0
20260503202503 31 323 1.6 8.0 0.00 0.00 0.00 34 1010.1
20260503202134 30 288 3.2 8.0 0.00 0.00 0.00 31 1010.1
20260503202129 30 341 3.2 8.0 0.00 0.00 0.00 30 1010.2
20260503202125 30 304 1.6 8.0 0.00 0.00 0.00 32 1010.3
20260503202123 29 342 3.2 8.0 0.00 0.00 0.00 32 1010.4
20260503202118 29 101 0.0 6.4 0.00 0.00 0.00 32 1010.5
20260503202114 28 313 1.6 6.4 0.00 0.00 0.00 33 1010.6
20260503202108 28 315 0.0 4.8 0.00 0.00 0.00 34 1010.6
20260503202105 28 327 1.6 6.4 0.00 0.00 0.00 35 1010.6
20260503202100 28 243 1.6 9.7 0.00 0.00 0.00 35 1010.7
20260503202056 28 315 0.0 9.7 0.00 0.00 0.00 33 1010.8
20260503202051 28 232 3.2 8.0 0.00 0.00 0.00 34 1010.8
20260503202048 28 237 1.6 6.4 0.00 0.00 0.00 36 1010.9
20260503202040 28 69 1.6 6.4 0.00 0.00 0.00 34 1011.0
20260503202032 28 88 3.2 6.4 0.00 0.00 0.00 38 1011.1
20260503202029 27 50 0.0 6.4 0.00 0.00 0.00 37 1011.1
20260503202025 27 67 3.2 6.4 0.00 0.00 0.00 36 1011.2
20260503202021 27 299 0.0 4.8 0.00 0.00 0.00 40 1011.3
20260503202016 26 316 1.6 8.0 0.00 0.00 0.00 40 1011.4
20260503181008 26 333 0.0 6.4 0.00 0.00 0.00 44 1011.6
20260503180507 26 329 1.6 6.4 0.00 0.00 0.00 42 1011.7
20260503180010 25 9 1.6 6.4 0.00 0.00 0.00 40 1011.7
20260503175507 25 30 1.6 6.4 0.00 0.00 0.00 44 1011.7
20260503175002 25 302 3.2 8.0 0.00 0.00 0.00 43 1011.7
20260503174525 25 337 1.6 8.0 0.00 0.00 0.00 49 1011.8
20260503174006 25 256 1.6 8.0 0.00 0.00 0.00 51 1011.8
20260503173503 24 321 1.6 8.0 0.00 0.00 0.00 51 1011.8
20260503173006 24 333 4.8 8.0 0.00 0.00 0.00 50 1011.9
20260503172505 23 46 3.2 6.4 0.00 0.00 0.00 48 1011.9
20260503172002 24 234 0.0 4.8 0.00 0.00 0.00 46 1012.0
20260503171503 24 73 1.6 4.8 0.00 0.00 0.00 45 1012.0
20260503171003 23 352 1.6 3.2 0.00 0.00 0.00 48 1012.0
20260503170503 23 348 0.0 6.4 0.00 0.00 0.00 50 1012.0
20260503151005 14 168 0.0 0.0 0.00 0.00 0.00 86 1012.3
20260503150505 13 160 0.0 0.0 0.00 0.00 0.00 87 1012.3
20260503023508 20 136 4.8 20.9 0.00 0.00 0.00 66 1012.7
20260503023020 20 178 6.4 20.9 0.00 0.00 0.00 64 1012.6
20260503022513 21 6.4 16.1 0.00 0.00 0.00 62 1012.6
20260503022351 21 150 8.0 0.0 0.00 0.00 0.00 61 1012.5
20260503021536 21 165 6.4 14.5 0.00 0.00 0.00 62 1012.4
20260503021448 21 179 4.8 11.3 0.00 0.00 0.00 63 1012.1
20260503021443 21 175 1.6 8.0 0.00 0.00 0.00 63 1011.9
20260503021439 21 160 1.6 8.0 0.00 0.00 0.00 62 1011.8
20260503021437 21 161 0.0 6.4 0.00 0.00 0.00 63 1011.8
20260503021433 21 149 1.6 9.7 0.00 0.00 0.00 62 1011.7
20260503021430 21 166 3.2 9.7 0.00 0.00 0.00 62 1011.6
20260503021423 21 240 0.0 3.2 0.00 0.00 0.00 61 1011.6
20260503021420 21 241 0.0 3.2 0.00 0.00 0.00 63 1011.5
20260503021411 21 180 0.0 3.2 0.00 0.00 0.00 61 1011.5
20260503021404 21 75 0.0 3.2 0.00 0.00 0.00 61 1011.5
20260503021357 21 268 0.0 3.2 0.00 0.00 0.00 62 1011.5
20260503021353 21 266 0.0 3.2 0.00 0.00 0.00 61 1011.5
20260503021349 21 266 0.0 3.2 0.00 0.00 0.00 62 1011.6
20260503021346 21 9 0.0 3.2 0.00 0.00 0.00 63 1011.6
20260503021342 21 175 0.0 1.6 0.00 0.00 0.00 62 1011.6
20260503021340 21 172 0.0 3.2 0.00 0.00 0.00 63 1011.5
20260503021337 21 161 0.0 3.2 0.00 0.00 0.00 62 1011.6
20260503021332 21 172 0.0 3.2 0.00 0.00 0.00 62 1011.7
20260503021329 21 296 0.0 3.2 0.00 0.00 0.00 62 1011.7
20260503021325 21 279 0.0 3.2 0.00 0.00 0.00 61 1011.7
20260503021321 21 284 0.0 3.2 0.00 0.00 0.00 61 1011.7
20260503021318 21 267 0.0 3.2 0.00 0.00 0.00 61 1011.8
20260503021312 21 250 0.0 4.8 0.00 0.00 0.00 62 1011.8
20260503021307 21 244 1.6 6.4 0.00 0.00 0.00 61 1011.8
20260503021304 21 264 1.6 6.4 0.00 0.00 0.00 60 1011.9
20260503021301 21 275 1.6 6.4 0.00 0.00 0.00 60 1011.9
20260503021256 21 271 1.6 8.0 0.00 0.00 0.00 61 1012.0
20260503021252 21 240 3.2 8.0 0.00 0.00 0.00 60 1012.1
20260503021249 21 207 0.0 6.4 0.00 0.00 0.00 60 1012.1
20260503021244 21 254 1.6 4.8 0.00 0.00 0.00 60 1012.1
20260503021241 21 288 0.0 4.8 0.00 0.00 0.00 60 1012.2
20260503021237 21 222 1.6 9.7 0.00 0.00 0.00 60 1012.3
20260503021235 21 213 1.6 9.7 0.00 0.00 0.00 62 1012.3
20260503021232 21 217 1.6 6.4 0.00 0.00 0.00 62 1012.3
20260503021225 20 165 0.0 4.8 0.00 0.00 0.00 63 1012.4
20260503021223 20 200 0.0 3.2 0.00 0.00 0.00 61 1012.5
20260503021218 20 173 0.0 0.0 0.00 0.00 0.00 63 1012.5
20260502224005 20 338 0.0 3.2 0.00 0.00 0.00 62 1012.6
20260502223506 20 250 0.0 9.7 0.00 0.00 0.00 63 1012.8
20260502223008 20 339 0.0 9.7 0.00 0.00 0.00 65 1012.9
20260502222502 20 209 0.0 8.0 0.00 0.00 0.00 62 1012.9
20260502222003 20 139 3.2 8.0 0.00 0.00 0.00 63 1013.0
20260502221511 20 191 1.6 6.4 0.00 0.00 0.00 64 1013.1
20260502221003 20 108 1.6 6.4 0.00 0.00 0.00 63 1013.2
20260502220507 20 346 0.0 3.2 0.00 0.00 0.00 63 1013.3
20260502220011 19 276 1.6 4.8 0.00 0.00 0.00 63 1013.4
20260502215503 19 352 1.6 4.8 0.00 0.00 0.00 64 1013.4
20260502215003 18 277 1.6 3.2 0.00 0.00 0.00 68 1013.4
20260502214511 18 248 0.0 4.8 0.00 0.00 0.00 65 1013.5
20260502214002 18 284 0.0 6.4 0.00 0.00 0.00 66 1013.6
20260502213502 18 209 1.6 6.4 0.00 0.00 0.00 67 1013.7